Location: Newark
(36.9614°N, 120.0608°W)
Time: 18:49:57
(UTC+00:00)

Envisat - Visible Passes

Search period start: 18 October 2019 00:00
Search period end: 28 October 2019 00:00
Orbit: 764 x 766 km, 98.1° (Epoch: 18 October)

Date Brightness Start Highest point End Pass type
(mag) Time Alt. Az. Time Alt. Az. Time Alt. Az.
18 Oct 2.9 02:01:20 10° SSE 02:06:23 76° ENE 02:11:29 10° N visible
18 Oct 6.3 03:45:11 10° W 03:45:55 10° W 03:46:38 10° W visible
19 Oct 5.2 03:04:39 10° SSW 03:08:49 25° W 03:12:59 10° NW visible
19 Oct 6.4 13:38:00 10° ENE 13:40:23 13° E 13:42:46 10° ESE visible
20 Oct 3.6 02:26:54 10° S 02:31:53 59° W 02:36:55 10° NNW visible
21 Oct 3.0 01:50:11 10° SSE 01:55:09 59° ENE 02:00:10 10° N visible
21 Oct 6.1 03:31:59 10° WSW 03:34:32 14° W 03:37:05 10° WNW visible
22 Oct 4.8 02:52:57 10° SSW 02:57:28 32° W 03:02:01 10° NNW visible
23 Oct 3.2 02:15:33 10° S 02:20:37 77° WSW 02:25:43 10° NNW visible
24 Oct 3.3 01:39:07 10° SE 01:43:57 46° ENE 01:48:47 10° N visible
24 Oct 5.7 03:19:45 10° SW 03:23:09 18° W 03:26:35 10° NW visible
25 Oct 4.3 02:41:24 10° S 02:46:09 41° W 02:50:58 10° NNW visible
26 Oct 2.9 02:04:18 10° SSE 02:09:21 84° ENE 02:14:28 10° N visible
27 Oct 5.4 03:07:50 10° SSW 03:11:48 23° W 03:15:48 10° NW visible
27 Oct 6.3 13:40:35 10° ENE 13:43:24 15° E 13:46:12 10° SE visible
